EW6063 Weather Reports


Display with metric or nautical units.
time (UTC)temp
F
wind
direction
speed
MPH
gust
MPH
rain 1hr
in
rain 24hr
in
rain mn
in
humidity
%
barometer
mb
20260507043058 48 25 0.0 0.0 0.00 0.00 0.00 77 1019.2
20260507042553 49 25 0.0 0.0 0.00 0.00 0.00 76 1019.1
20260507042058 49 25 0.0 0.0 0.00 0.00 0.00 76 1019.1
20260507041553 49 25 0.0 0.0 0.00 0.00 0.00 76 1019.0
20260507041053 49 25 0.0 0.0 0.00 0.00 0.00 75 1019.0
20260507040553 49 25 0.0 0.0 0.00 0.00 0.00 76 1019.0
20260507040053 50 25 0.0 0.0 0.00 0.00 0.00 76 1019.0
20260507035552 50 25 0.0 0.0 0.00 0.00 0.00 75 1018.8
20260507035052 50 25 0.0 0.0 0.00 0.00 0.00 74 1018.8
20260507034559 50 25 0.0 1.0 0.00 0.00 0.00 74 1018.7
20260507034052 50 25 0.0 1.0 0.00 0.00 0.00 75 1018.7
20260507033554 50 25 0.0 0.0 0.00 0.00 0.00 74 1018.7
20260507033052 50 25 0.0 2.0 0.00 0.00 0.00 73 1018.7
20260507032551 50 25 0.0 2.0 0.00 0.00 0.00 72 1018.7
20260507032052 50 25 0.0 2.0 0.00 0.00 0.00 72 1018.7
20260507031551 50 25 0.0 2.0 0.00 0.00 0.00 72 1018.7
20260507031054 51 25 0.0 2.0 0.00 0.00 0.00 72 1018.6
20260507030550 51 25 0.0 1.0 0.00 0.00 0.00 72 1018.6
20260507030051 51 25 0.0 2.0 0.00 0.00 0.00 71 1018.6
20260507025552 51 25 1.0 2.0 0.00 0.00 0.00 70 1018.7
20260507025050 51 25 1.0 2.0 0.00 0.00 0.00 70 1018.5
20260507024558 52 25 0.0 1.0 0.00 0.00 0.00 70 1018.5
20260507024052 52 25 0.0 2.0 0.00 0.00 0.00 69 1018.4
20260507023549 53 25 0.0 2.0 0.00 0.00 0.00 69 1018.4
20260507023050 53 25 0.0 1.0 0.00 0.00 0.00 68 1018.3
20260507022549 53 25 0.0 0.0 0.00 0.00 0.00 66 1018.3
20260507022049 53 25 0.0 0.0 0.00 0.00 0.00 68 1018.2
20260507021551 53 25 0.0 0.0 0.00 0.00 0.00 64 1018.2
20260507021049 54 25 0.0 0.0 0.00 0.00 0.00 64 1018.2
20260507020551 54 25 0.0 0.0 0.00 0.00 0.00 64 1018.1
20260507020053 54 25 0.0 0.0 0.00 0.00 0.00 65 1017.9
20260507015548 55 25 0.0 0.0 0.00 0.00 0.00 64 1017.9
20260507015048 55 25 0.0 0.0 0.00 0.00 0.00 63 1017.9
20260507014550 55 25 0.0 0.0 0.00 0.00 0.00 62 1017.9
20260507014048 56 25 0.0 0.0 0.00 0.00 0.00 62 1017.8
20260507013550 56 25 0.0 0.0 0.00 0.00 0.00 62 1017.8
20260507013047 56 25 0.0 0.0 0.00 0.00 0.00 61 1017.7
20260507012551 57 25 0.0 1.0 0.00 0.00 0.00 61 1017.7
20260507012047 57 25 0.0 1.0 0.00 0.00 0.00 59 1017.6
20260507011548 57 25 0.0 2.0 0.00 0.00 0.00 58 1017.6
20260507011047 57 25 0.0 2.0 0.00 0.00 0.00 58 1017.5
20260507010547 57 25 1.0 2.0 0.00 0.00 0.00 58 1017.5
20260507010104 58 25 0.0 3.0 0.00 0.00 0.00 58 1017.4
20260507005547 58 25 1.0 3.0 0.00 0.00 0.00 57 1017.3
20260507005049 58 25 2.0 3.0 0.00 0.00 0.00 59 1017.4
20260507004546 58 25 1.0 3.0 0.00 0.00 0.00 58 1017.4
20260507004046 58 25 1.0 3.0 0.00 0.00 0.00 58 1017.3
20260507003549 59 25 1.0 3.0 0.00 0.00 0.00 57 1017.3
20260507003045 59 25 1.0 3.0 0.00 0.00 0.00 57 1017.2
20260507002545 59 25 1.0 3.0 0.00 0.00 0.00 56 1017.1
20260507002045 59 25 1.0 3.0 0.00 0.00 0.00 57 1017.1
20260507001554 59 25 1.0 3.0 0.00 0.00 0.00 58 1017.1
20260507001045 59 25 1.0 3.0 0.00 0.00 0.00 56 1017.1
20260507000545 59 25 0.0 3.0 0.00 0.00 0.00 56 1017.0
20260507000045 60 25 0.0 3.0 0.00 0.00 0.00 56 1017.0
20260506235544 60 25 1.0 3.0 0.00 0.00 0.00 55 1017.0
20260506235044 60 25 0.0 2.0 0.00 0.00 0.00 55 1017.0
20260506234545 60 25 0.0 2.0 0.00 0.00 0.00 55 1016.8
20260506234045 60 25 0.0 2.0 0.00 0.00 0.00 54 1016.7
20260506233544 60 25 0.0 3.0 0.00 0.00 0.00 52 1016.6
20260506233054 60 25 1.0 5.0 0.00 0.00 0.00 50 1016.5
20260506232543 60 13 2.0 5.0 0.00 0.00 0.00 49 1016.5
20260506232044 60 17 2.0 5.0 0.00 0.00 0.00 50 1016.4
20260506231543 60 31 2.0 5.0 0.00 0.00 0.00 51 1016.4
20260506231044 60 44 1.0 5.0 0.00 0.00 0.00 51 1016.4
20260506230544 61 17 3.0 6.0 0.00 0.00 0.00 51 1016.5
20260506230045 61 14 1.0 6.0 0.00 0.00 0.00 52 1016.3
20260506225542 61 19 3.0 6.0 0.00 0.00 0.00 51 1016.3
20260506225044 61 29 3.0 6.0 0.00 0.00 0.00 51 1016.3
20260506224543 61 15 2.0 6.0 0.00 0.00 0.00 52 1016.1
20260506224042 61 9 3.0 8.0 0.00 0.00 0.00 53 1016.2
20260506223541 61 351 2.0 8.0 0.00 0.00 0.00 53 1016.2
20260506223044 61 17 2.0 8.0 0.00 0.00 0.00 52 1016.1
20260506222542 62 5 3.0 5.0 0.00 0.00 0.00 52 1016.2
20260506222042 62 15 1.0 5.0 0.00 0.00 0.00 50 1016.1
20260506221547 62 19 3.0 6.0 0.00 0.00 0.00 51 1016.2
20260506221040 62 360 3.0 6.0 0.00 0.00 0.00 51 1016.3
20260506220540 63 9 2.0 6.0 0.00 0.00 0.00 49 1016.2
20260506220048 63 19 3.0 7.0 0.00 0.00 0.00 52 1016.2
20260506215540 63 9 2.0 6.0 0.00 0.00 0.00 50 1016.2
20260506215042 63 15 2.0 5.0 0.00 0.00 0.00 49 1016.3
20260506214540 63 340 2.0 5.0 0.00 0.00 0.00 52 1016.3
20260506214040 63 13 1.0 5.0 0.00 0.00 0.00 52 1016.4
20260506213541 63 12 2.0 5.0 0.00 0.00 0.00 50 1016.4
20260506213040 64 15 2.0 6.0 0.00 0.00 0.00 51 1016.4
20260506212540 64 14 3.0 6.0 0.00 0.00 0.00 52 1016.4
20260506212040 64 339 1.0 6.0 0.00 0.00 0.00 51 1016.3
20260506211547 64 11 2.0 8.0 0.00 0.00 0.00 53 1016.3
20260506211039 64 31 3.0 8.0 0.00 0.00 0.00 49 1016.4
20260506210539 64 360 2.0 5.0 0.00 0.00 0.00 51 1016.4
20260506210038 64 24 3.0 5.0 0.00 0.00 0.00 50 1016.5
20260506205538 64 178 1.0 6.0 0.00 0.00 0.00 49 1016.6
20260506205038 64 29 3.0 6.0 0.00 0.00 0.00 50 1016.7
20260506204538 64 18 2.0 5.0 0.00 0.00 0.00 48 1016.8
20260506204038 64 18 2.0 5.0 0.00 0.00 0.00 48 1016.8
20260506203537 64 355 2.0 5.0 0.00 0.00 0.00 50 1016.9
20260506203037 64 10 2.0 8.0 0.00 0.00 0.00 50 1017.0
20260506202537 64 5 3.0 8.0 0.00 0.00 0.00 49 1017.1
20260506202037 65 16 2.0 5.0 0.00 0.00 0.00 48 1017.2
20260506201536 65 17 3.0 5.0 0.00 0.00 0.00 52 1017.2
20260506201036 64 244 2.0 5.0 0.00 0.00 0.00 48 1017.2
20260506200535 64 360 2.0 9.0 0.00 0.00 0.00 51 1017.3
20260506200035 64 17 2.0 6.0 0.00 0.00 0.00 51 1017.3
20260506195535 64 360 3.0 6.0 0.00 0.00 0.00 51 1017.2
20260506195036 63 11 1.0 5.0 0.00 0.00 0.00 52 1017.2
20260506194537 63 21 2.0 6.0 0.00 0.00 0.00 48 1017.2
20260506194035 64 11 3.0 7.0 0.00 0.00 0.00 52 1017.2
20260506193533 64 16 1.0 6.0 0.00 0.00 0.00 53 1017.2
20260506193034 64 30 2.0 6.0 0.00 0.00 0.00 51 1017.3
20260506192531 64 5 1.0 6.0 0.00 0.00 0.00 53 1017.4
20260506192031 64 9 1.0 4.0 0.00 0.00 0.00 54 1017.5
20260506191532 63 330 2.0 4.0 0.00 0.00 0.00 53 1017.7
20260506191029 63 322 2.0 6.0 0.00 0.00 0.00 51 1017.7
20260506190528 63 5 3.0 6.0 0.00 0.00 0.00 57 1017.9
20260506190028 62 325 1.0 5.0 0.00 0.00 0.00 54 1017.9
20260506185525 62 343 2.0 5.0 0.00 0.00 0.00 53 1017.9
20260506185024 61 350 3.0 6.0 0.00 0.00 0.00 54 1017.9
20260506184526 61 13 2.0 6.0 0.00 0.00 0.00 57 1018.1
20260506184024 61 14 2.0 5.0 0.00 0.00 0.00 59 1018.1
20260506183521 60 42 1.0 5.0 0.00 0.00 0.00 55 1018.2
20260506183020 60 11 1.0 5.0 0.00 0.00 0.00 55 1018.3
20260506182520 60 21 2.0 8.0 0.00 0.00 0.00 55 1018.4
20260506182019 60 9 4.0 8.0 0.00 0.00 0.00 55 1018.6
20260506181519 60 24 0.0 9.0 0.00 0.00 0.00 57 1018.6
20260506181018 60 12 2.0 9.0 0.00 0.00 0.00 63 1018.7
20260506180516 59 281 1.0 4.0 0.00 0.00 0.00 61 1018.9
20260506180016 59 346 1.0 5.0 0.00 0.00 0.00 60 1019.1
20260506175515 59 24 2.0 3.0 0.00 0.00 0.00 61 1019.2
20260506175012 58 24 1.0 4.0 0.00 0.00 0.00 60 1019.3
20260506174512 58 24 0.0 5.0 0.00 0.00 0.00 60 1019.5
20260506174012 58 24 2.0 5.0 0.00 0.00 0.00 59 1019.5
20260506173512 59 24 1.0 4.0 0.00 0.00 0.00 59 1019.4
20260506173009 59 24 1.0 3.0 0.00 0.00 0.00 63 1019.3
20260506172508 59 150 0.0 4.0 0.00 0.00 0.00 60 1019.2
20260506172008 59 150 1.0 5.0 0.00 0.00 0.00 60 1019.3
20260506171508 59 24 2.0 5.0 0.00 0.00 0.00 60 1019.4
20260506171007 59 5 2.0 5.0 0.00 0.00 0.00 62 1019.3
20260506170507 59 333 1.0 5.0 0.00 0.00 0.00 63 1019.2
20260506170010 59 338 2.0 5.0 0.00 0.00 0.00 61 1019.3
20260506165508 59 17 1.0 5.0 0.00 0.00 0.00 62 1019.4
20260506165010 59 360 2.0 5.0 0.00 0.00 0.00 61 1019.5
20260506164504 59 340 1.0 5.0 0.00 0.00 0.00 62 1019.6
20260506164003 58 360 1.0 5.0 0.00 0.00 0.00 61 1019.3
20260506163502 58 36 1.0 6.0 0.00 0.00 0.00 61 1019.2
20260506163103 57 360 2.0 6.0 0.00 0.00 0.00 61 1019.0
20260506162603 57 13 3.0 6.0 0.00 0.00 0.00 62 1018.8
20260506162101 57 21 3.0 6.0 0.00 0.00 0.00 63 1018.5
20260506161609 57 10 3.0 6.0 0.00 0.00 0.00 64 1018.3
20260506161057 57 5 2.0 6.0 0.00 0.00 0.00 65 1018.2
20260506160556 57 16 2.0 5.0 0.00 0.00 0.00 65 1018.4
20260506160100 56 23 1.0 6.0 0.00 0.00 0.00 67 1018.2
20260506155553 56 10 3.0 6.0 0.00 0.00 0.00 65 1018.1
20260506155054 56 344 2.0 9.0 0.00 0.00 0.00 67 1017.9
20260506154551 55 346 1.0 9.0 0.00 0.00 0.00 68 1017.8
20260506154050 55 5 2.0 5.0 0.00 0.00 0.00 69 1017.9
20260506153547 55 9 1.0 5.0 0.00 0.00 0.00 69 1018.1
20260506153046 55 28 2.0 5.0 0.00 0.00 0.00 72 1018.2
20260506152546 54 19 1.0 5.0 0.00 0.00 0.00 74 1018.3
20260506152044 54 159 1.0 5.0 0.00 0.00 0.00 75 1018.4
20260506151543 53 5 0.0 5.0 0.00 0.00 0.00 77 1018.2
20260506151041 52 5 2.0 5.0 0.00 0.00 0.00 78 1018.3
20260506150539 52 9 2.0 5.0 0.00 0.00 0.00 79 1017.8
20260506150045 51 360 1.0 4.0 0.00 0.00 0.00 81 1017.7
20260506145539 51 360 1.0 4.0 0.00 0.00 0.00 81 1017.9
20260506145038 50 219 1.0 4.0 0.00 0.00 0.00 81 1018.0
20260506144553 50 346 1.0 3.0 0.00 0.00 0.00 81 1017.7
20260506144033 50 360 1.0 4.0 0.00 0.00 0.00 82 1017.9
20260506143532 50 49 1.0 5.0 0.00 0.00 0.00 81 1018.0
20260506143031 49 175 1.0 5.0 0.00 0.00 0.00 82 1017.8
20260506142530 49 292 1.0 4.0 0.00 0.00 0.00 83 1017.6
20260506142028 49 5 1.0 5.0 0.00 0.00 0.00 83 1017.5
20260506141527 48 15 0.0 5.0 0.00 0.00 0.00 84 1017.6
20260506141027 48 23 1.0 4.0 0.00 0.00 0.00 84 1017.7
20260506140526 48 30 1.0 7.0 0.00 0.00 0.00 85 1017.9
20260506140038 48 30 1.0 7.0 0.00 0.00 0.00 85 1018.1
20260506135623 48 15 1.0 5.0 0.00 0.00 0.00 85 1018.2
20260506135023 48 355 1.0 4.0 0.00 0.00 0.00 86 1018.2
20260506134530 48 9 1.0 6.0 0.00 0.00 0.00 86 1018.3
20260506134022 47 9 1.0 6.0 0.00 0.00 0.00 86 1018.4
20260506133520 47 5 2.0 4.0 0.00 0.00 0.00 87 1018.3
20260506133022 47 10 1.0 6.0 0.00 0.00 0.00 87 1018.2
20260506132519 47 355 2.0 6.0 0.00 0.00 0.00 87 1017.9
20260506132018 47 28 1.0 3.0 0.00 0.00 0.00 88 1018.0
20260506131523 47 30 0.0 3.0 0.00 0.00 0.00 88 1017.8
20260506131018 47 32 0.0 4.0 0.00 0.00 0.00 89 1017.9
20260506130518 47 30 1.0 5.0 0.00 0.00 0.00 89 1017.9
20260506130018 47 9 1.0 5.0 0.00 0.00 0.00 89 1017.8
20260506125517 47 24 1.0 5.0 0.00 0.00 0.00 89 1017.6
20260506125015 47 14 2.0 5.0 0.00 0.00 0.00 89 1017.5
20260506124514 47 20 2.0 4.0 0.00 0.00 0.00 90 1017.7
20260506124013 47 14 1.0 4.0 0.00 0.00 0.00 90 1017.7
20260506123513 47 19 1.0 4.0 0.00 0.00 0.00 90 1017.8
20260506123014 46 20 0.0 4.0 0.00 0.00 0.00 90 1017.6
20260506122512 46 19 1.0 4.0 0.00 0.00 0.00 90 1017.3
20260506122012 46 19 0.0 3.0 0.00 0.00 0.00 90 1017.5
20260506121510 46 19 1.0 3.0 0.00 0.00 0.00 90 1017.8
20260506121009 46 19 0.0 2.0 0.00 0.00 0.00 90 1018.0
20260506120510 46 19 0.0 3.0 0.00 0.00 0.00 90 1017.8
20260506120015 46 19 1.0 3.0 0.00 0.00 0.00 90 1017.9
20260506115514 46 21 1.0 3.0 0.00 0.00 0.00 90 1018.0
20260506115007 46 9 1.0 3.0 0.00 0.00 0.00 90 1018.0
20260506114514 46 9 0.0 2.0 0.00 0.00 0.00 91 1017.7
20260506114009 46 9 0.0 2.0 0.00 0.00 0.00 91 1017.4
20260506113503 46 5 0.0 4.0 0.00 0.00 0.00 91 1017.3
20260506113004 46 12 1.0 4.0 0.00 0.00 0.00 91 1017.1
20260506112503 46 360 1.0 3.0 0.00 0.00 0.00 91 1017.1
20260506112003 46 16 0.0 4.0 0.00 0.00 0.00 91 1017.2
20260506111502 46 15 1.0 3.0 0.00 0.00 0.00 91 1017.1
20260506111002 46 15 1.0 3.0 0.00 0.00 0.00 91 1017.3
20260506110504 46 16 1.0 2.0 0.00 0.00 0.00 91 1017.2
20260506110002 46 16 0.0 2.0 0.00 0.00 0.00 91 1017.2
20260506105600 46 16 0.0 2.0 0.00 0.00 0.00 91 1016.9
20260506105059 46 16 0.0 2.0 0.00 0.00 0.00 90 1016.8
20260506104606 46 16 0.0 2.0 0.00 0.00 0.00 90 1016.8
20260506104058 46 16 0.0 2.0 0.00 0.00 0.00 90 1016.5
20260506103558 46 16 0.0 3.0 0.00 0.00 0.00 90 1016.4
20260506103105 46 16 0.0 3.0 0.00 0.00 0.00 90 1016.2
20260506102556 46 13 2.0 3.0 0.00 0.00 0.00 90 1016.0
20260506102059 46 22 0.0 3.0 0.00 0.00 0.00 90 1016.2
20260506101554 46 22 0.0 3.0 0.00 0.00 0.00 90 1016.0
20260506101053 46 22 1.0 3.0 0.00 0.00 0.00 90 1015.8
20260506100552 46 5 1.0 3.0 0.00 0.00 0.00 90 1015.7
20260506100106 46 5 1.0 3.0 0.00 0.00 0.00 90 1015.5
20260506095552 46 5 0.0 3.0 0.00 0.00 0.00 90 1015.4
20260506095052 46 5 0.0 3.0 0.00 0.00 0.00 90 1015.5
20260506094600 46 5 1.0 2.0 0.00 0.00 0.00 90 1015.3
20260506094050 46 5 0.0 2.0 0.00 0.00 0.00 90 1015.0
20260506093550 46 5 1.0 2.0 0.00 0.00 0.00 90 1015.0
20260506093049 46 5 0.0 3.0 0.00 0.00 0.00 90 1015.1
20260506092549 46 5 1.0 3.0 0.00 0.00 0.00 90 1015.2
20260506092049 46 5 0.0 2.0 0.00 0.00 0.00 90 1015.2
20260506091549 46 5 0.0 2.0 0.00 0.00 0.00 90 1015.1
20260506091048 46 5 0.0 3.0 0.00 0.00 0.00 90 1015.1
20260506090546 46 5 0.0 3.0 0.00 0.00 0.00 90 1015.1
20260506090046 46 5 0.0 2.0 0.00 0.00 0.00 90 1014.9
20260506085545 46 5 0.0 2.0 0.00 0.00 0.00 90 1014.6
20260506085046 46 5 0.0 2.0 0.00 0.00 0.00 90 1014.5
20260506084546 46 5 0.0 2.0 0.00 0.00 0.00 90 1014.4
20260506084044 46 5 0.0 2.0 0.00 0.00 0.00 90 1014.2
20260506083543 46 5 0.0 1.0 0.00 0.00 0.00 90 1014.0
20260506083048 46 5 0.0 2.0 0.00 0.00 0.00 90 1013.6
20260506082542 46 5 0.0 2.0 0.00 0.00 0.00 90 1013.9
20260506082042 46 5 0.0 2.0 0.00 0.00 0.00 90 1013.9
20260506081559 46 5 0.0 3.0 0.00 0.00 0.00 90 1014.1
20260506081042 46 5 0.0 3.0 0.00 0.00 0.00 90 1013.9
20260506080542 46 5 0.0 2.0 0.00 0.00 0.00 90 1013.6
20260506073039 46 17 0.0 2.0 0.00 0.00 0.00 90 1013.5
20260506072541 46 17 0.0 2.0 0.00 0.00 0.00 90 1013.5
20260506072039 46 17 0.0 2.0 0.00 0.00 0.00 90 1013.6
20260506071542 46 17 0.0 2.0 0.00 0.00 0.00 90 1013.3
20260506071038 46 17 0.0 2.0 0.00 0.00 0.00 90 1013.1
20260506070537 46 17 0.0 4.0 0.00 0.00 0.00 90 1013.1
20260506062029 47 15 2.0 4.0 0.00 0.42 0.00 91 1013.7
20260506061529 47 355 1.0 3.0 0.00 0.42 0.00 91 1014.1
20260506061029 47 355 1.0 3.0 0.00 0.42 0.00 91 1014.1
20260506060529 47 355 1.0 3.0 0.00 0.42 0.00 91 1014.1
20260506051020 47 19 0.0 3.0 0.00 0.42 0.00 91 1013.7
20260506050519 47 19 0.0 3.0 0.00 0.42 0.00 91 1013.8
20260506045016 47 19 0.0 3.0 0.00 0.42 0.42 91 1014.3
20260506044517 47 19 0.0 3.0 0.00 0.42 0.42 91 1014.1
20260506044015 47 19 1.0 2.0 0.00 0.42 0.42 91 1014.0
20260506043513 47 19 0.0 2.0 0.00 0.42 0.42 91 1014.0